DL6MAA-11 Weather Reports


time (UTC)temp
C
wind
direction
speed
KPH
gust
KPH
rain 1hr
cm
rain 24hr
cm
rain mn
cm
humidity
%
barometer
mb
20260901202704 15 338 0.0 0.0 0.00 0.00 0.00 72 1020.3
20260901202213 15 339 0.0 0.0 0.00 0.00 0.00 72 1020.3
20260901201712 15 339 0.0 0.0 0.00 0.00 0.00 72 1020.3
20260901201214 16 339 0.0 0.0 0.00 0.00 0.00 71 1019.7
20260901200717 16 339 0.0 0.0 0.00 0.00 0.00 71 1019.7
20260901200205 16 340 0.0 0.0 0.00 0.00 0.00 71 1019.7
20260901195705 16 344 0.0 0.0 0.00 0.00 0.00 70 1020.4
20260901195207 16 339 0.0 0.0 0.00 0.00 0.00 70 1020.4
20260901194712 16 339 0.0 0.0 0.00 0.00 0.00 70 1020.4
20260901194212 16 340 0.0 0.0 0.00 0.00 0.00 69 1020.1
20260901193711 16 338 0.0 0.0 0.00 0.00 0.00 69 1020.1
20260901193218 16 339 0.0 0.0 0.00 0.00 0.00 69 1020.1
20260901192706 16 338 0.0 0.0 0.00 0.00 0.00 69 1019.9
20260901192221 17 339 0.0 0.0 0.00 0.00 0.00 68 1019.9
20260901191709 17 338 0.0 0.0 0.00 0.00 0.00 68 1019.9
20260901191216 17 339 0.0 0.0 0.00 0.00 0.00 68 1019.7
20260901190720 17 341 0.0 0.0 0.00 0.00 0.00 67 1019.7
20260901190208 17 338 0.0 0.0 0.00 0.00 0.00 67 1019.7
20260901185716 17 339 0.0 0.0 0.00 0.00 0.00 66 1019.7
20260901185222 17 339 0.0 0.0 0.00 0.00 0.00 66 1019.7
20260901184707 17 338 0.0 0.0 0.00 0.00 0.00 65 1019.7
20260901184212 18 339 0.0 0.0 0.00 0.00 0.00 64 1019.4
20260901183718 18 339 0.0 0.0 0.00 0.00 0.00 64 1019.4
20260901183218 18 339 0.0 0.0 0.00 0.00 0.00 63 1019.4
20260901182721 18 339 0.0 0.0 0.00 0.00 0.00 62 1018.8
20260901182209 18 338 0.0 0.0 0.00 0.00 0.00 62 1018.8
20260901181704 18 339 0.0 0.0 0.00 0.00 0.00 61 1018.8
20260901181218 19 339 0.0 0.0 0.00 0.00 0.00 60 1018.7
20260901180712 19 339 0.0 0.0 0.00 0.00 0.00 60 1018.7
20260901180214 20 339 0.0 0.0 0.00 0.00 0.00 59 1018.7
20260901175707 20 339 0.0 0.0 0.00 0.00 0.00 59 1018.7
20260901175213 20 338 0.0 0.0 0.00 0.00 0.00 58 1018.7
20260901174701 20 339 0.0 0.0 0.00 0.00 0.00 57 1018.7
20260901174207 20 339 0.0 0.0 0.00 0.00 0.00 57 1018.6
20260901173710 20 339 0.0 0.0 0.00 0.00 0.00 57 1018.6
20260901173215 20 338 0.0 0.0 0.00 0.00 0.00 57 1018.6
20260901172714 20 340 0.0 0.0 0.00 0.00 0.00 56 1018.9
20260901172220 20 0.0 0.0 0.00 0.00 0.00 56 1018.9
20260901171710 -17 0.0 0.0 0.00 0.00 0.00 1018.9
20260901171205 -17 0.0 0.0 0.00 0.00 0.00 1018.9
20260901170700 -17 0.0 0.0 0.00 0.00 0.00 1018.9
20260901170216 -17 0.0 0.0 0.00 0.00 0.00 1018.9
20260901165710 -17 0.0 0.0 0.00 0.00 0.00 1018.9
20260901165206 -17 0.0 0.0 0.00 0.00 0.00 1018.9
20260901164702 -17 0.0 0.0 0.00 0.00 0.00 1018.9
20260901164213 -17 0.0 0.0 0.00 0.00 0.00 1018.9
20260901163709 -17 0.0 0.0 0.00 0.00 0.00 1018.9
20260901163204 -17 0.0 0.0 0.00 0.00 0.00 1018.9
20260901162700 -17 0.0 0.0 0.00 0.00 0.00 1018.9
20260901162214 -17 0.0 0.0 0.00 0.00 0.00 1018.9
20260901161709 -17 0.0 0.0 0.00 0.00 0.00 1018.9
20260901161202 -17 0.0 0.0 0.00 0.00 0.00 1018.9
20260901160718 -17 0.0 0.0 0.00 0.00 0.00 1018.9
20260901160217 -17 0.0 0.0 0.00 0.00 0.00 1018.9
20260901155712 -17 0.0 0.0 0.00 0.00 0.00 1018.9
20260901155203 -17 0.0 0.0 0.00 0.00 0.00 1018.9
20260901154712 -17 0.0 0.0 0.00 0.00 0.00 1018.9
20260901154215 -17 0.0 0.0 0.00 0.00 0.00 1018.9
20260901153716 -17 0.0 0.0 0.00 0.00 0.00 1018.9
20260901153211 -17 0.0 0.0 0.00 0.00 0.00 1018.9
20260901152706 -17 0.0 0.0 0.00 0.00 0.00 1018.9
20260901152202 -17 0.0 0.0 0.00 0.00 0.00 1018.9
20260901151716 22 277 3.2 0.0 0.00 0.00 0.00 50 1018.9
20260901151211 22 277 3.2 0.0 0.00 0.00 0.00 50 1018.8
20260901150701 23 341 3.2 0.0 0.00 0.00 0.00 50 1018.8
20260901150216 23 277 3.2 0.0 0.00 0.00 0.00 48 1018.8
20260901145705 23 360 1.6 0.0 0.00 0.00 0.00 49 1018.9
20260901145204 22 360 1.6 0.0 0.00 0.00 0.00 49 1018.9
20260901144702 22 296 1.6 0.0 0.00 0.00 0.00 48 1018.9
20260901144213 22 274 3.2 0.0 0.00 0.00 0.00 49 1018.8
20260901143706 22 336 3.2 0.0 0.00 0.00 0.00 50 1018.8
20260901143201 23 295 1.6 0.0 0.00 0.00 0.00 50 1018.8
20260901142713 23 360 1.6 0.0 0.00 0.00 0.00 49 1019.0
20260901142218 22 355 1.6 0.0 0.00 0.00 0.00 52 1019.0
20260901141704 22 338 3.2 0.0 0.00 0.00 0.00 51 1019.0
20260901141203 22 284 1.6 0.0 0.00 0.00 0.00 51 1019.0
20260901140715 21 340 1.6 0.0 0.00 0.00 0.00 51 1019.0
20260901140208 22 347 6.4 0.0 0.00 0.00 0.00 51 1019.0
20260901135703 22 295 6.4 0.0 0.00 0.00 0.00 49 1019.1
20260901135218 22 360 4.8 0.0 0.00 0.00 0.00 51 1019.1
20260901134718 22 302 4.8 0.0 0.00 0.00 0.00 49 1019.1
20260901134216 22 302 1.6 0.0 0.00 0.00 0.00 48 1018.9
20260901133704 23 244 3.2 0.0 0.00 0.00 0.00 48 1018.9
20260901133218 23 360 4.8 0.0 0.00 0.00 0.00 50 1018.9
20260901132713 23 277 3.2 0.0 0.00 0.00 0.00 51 1019.2
20260901132207 23 184 1.6 0.0 0.00 0.00 0.00 49 1019.2
20260901131722 23 233 3.2 0.0 0.00 0.00 0.00 48 1019.2
20260901131222 22 360 6.4 0.0 0.00 0.00 0.00 50 1019.6
20260901130717 22 278 8.0 0.0 0.00 0.00 0.00 50 1019.6
20260901130217 22 360 6.4 0.0 0.00 0.00 0.00 52 1019.6
20260901125711 21 360 3.2 0.0 0.00 0.00 0.00 52 1019.5
20260901125205 22 330 4.8 0.0 0.00 0.00 0.00 52 1019.5
20260901124719 22 360 4.8 0.0 0.00 0.00 0.00 50 1019.5
20260901124214 22 279 1.6 0.0 0.00 0.00 0.00 53 1019.7
20260901123708 21 234 1.6 0.0 0.00 0.00 0.00 54 1019.7
20260901123203 21 236 3.2 0.0 0.00 0.00 0.00 54 1019.7
20260901122716 21 194 4.8 0.0 0.00 0.00 0.00 56 1019.9
20260901122212 21 272 4.8 0.0 0.00 0.00 0.00 56 1019.9
20260901121703 21 279 4.8 0.0 0.00 0.00 0.00 56 1019.9
20260901121217 21 317 4.8 0.0 0.00 0.00 0.00 56 1019.6
20260901120711 21 272 4.8 0.0 0.00 0.00 0.00 54 1019.6
20260901120206 22 360 4.8 0.0 0.00 0.00 0.00 53 1019.6
20260901115659 22 282 4.8 0.0 0.00 0.00 0.00 52 1019.6
20260901115214 22 176 1.6 0.0 0.00 0.00 0.00 53 1019.6
20260901114722 22 319 3.2 0.0 0.00 0.00 0.00 53 1019.6
20260901114208 22 244 4.8 0.0 0.00 0.00 0.00 53 1020.0
20260901113708 21 274 8.0 0.0 0.00 0.00 0.00 55 1020.0
20260901113216 21 296 8.0 0.0 0.00 0.00 0.00 55 1020.0
20260901112711 21 360 4.8 0.0 0.00 0.00 0.00 55 1020.1
20260901112205 22 317 4.8 0.0 0.00 0.00 0.00 54 1020.1
20260901111717 21 313 4.8 0.0 0.00 0.00 0.00 57 1020.1
20260901111206 21 303 6.4 0.0 0.00 0.00 0.00 56 1020.2
20260901110712 21 321 8.0 0.0 0.00 0.00 0.00 56 1020.2
20260901110201 21 360 6.4 0.0 0.00 0.00 0.00 54 1020.2
20260901105700 21 302 4.8 0.0 0.00 0.00 0.00 54 1019.7
20260901105210 21 278 4.8 0.0 0.00 0.00 0.00 54 1019.7
20260901104704 22 360 3.2 0.0 0.00 0.00 0.00 52 1019.7
20260901104216 22 268 1.6 0.0 0.00 0.00 0.00 53 1020.2
20260901103705 22 236 1.6 0.0 0.00 0.00 0.00 56 1020.2
20260901103206 21 311 1.6 0.0 0.00 0.00 0.00 56 1020.2
20260901102715 21 360 1.6 0.0 0.00 0.00 0.00 55 1019.7
20260901102200 21 360 3.2 0.0 0.00 0.00 0.00 57 1019.7
20260901101706 20 265 6.4 0.0 0.00 0.00 0.00 58 1019.7
20260901101201 20 255 4.8 0.0 0.00 0.00 0.00 58 1020.4
20260901100716 20 270 3.2 0.0 0.00 0.00 0.00 58 1020.4
20260901100210 21 360 4.8 0.0 0.00 0.00 0.00 57 1020.4
20260901095704 21 254 4.8 0.0 0.00 0.00 0.00 53 1020.3
20260901095217 22 275 6.4 0.0 0.00 0.00 0.00 55 1020.3
20260901094712 21 0.0 0.0 0.00 0.00 0.00 55 1020.3
20260901094205 21 276 4.8 0.0 0.00 0.00 0.00 56 1020.4
20260901093700 21 187 4.8 0.0 0.00 0.00 0.00 55 1020.4
20260901093214 21 360 4.8 0.0 0.00 0.00 0.00 57 1020.4
20260901092709 21 360 3.2 0.0 0.00 0.00 0.00 57 1019.8
20260901092218 21 187 1.6 0.0 0.00 0.00 0.00 57 1019.8
20260901091709 20 360 1.6 0.0 0.00 0.00 0.00 58 1019.8
20260901091218 19 360 4.8 0.0 0.00 0.00 0.00 60 1019.8
20260901090721 19 246 4.8 0.0 0.00 0.00 0.00 58 1019.8
20260901090210 20 286 1.6 0.0 0.00 0.00 0.00 58 1019.8
20260901085713 20 311 1.6 0.0 0.00 0.00 0.00 58 1020.2
20260901085220 20 311 3.2 0.0 0.00 0.00 0.00 59 1020.2
20260901084704 -17 0.0 0.0 0.00 0.00 0.00 1020.2
20260901084214 -17 0.0 0.0 0.00 0.00 0.00 1020.1
20260901083706 -17 0.0 0.0 0.00 0.00 0.00 1020.1
20260901083201 -17 0.0 0.0 0.00 0.00 0.00 1020.1
20260901082715 -17 0.0 0.0 0.00 0.00 0.00 1020.0
20260901082209 -17 0.0 0.0 0.00 0.00 0.00 1020.0
20260901081703 -17 0.0 0.0 0.00 0.00 0.00 1020.0
20260901081219 -17 0.0 0.0 0.00 0.00 0.00 1020.0
20260901080715 -17 0.0 0.0 0.00 0.00 0.00 1020.0
20260901080208 -17 0.0 0.0 0.00 0.00 0.00 1020.0
20260901075703 -17 0.0 0.0 0.00 0.00 0.00 1020.0
20260901075213 -17 0.0 0.0 0.00 0.00 0.00 1020.0
20260901074708 -17 0.0 0.0 0.00 0.00 0.00 1020.0
20260901074203 -17 0.0 0.0 0.00 0.00 0.00 1020.0
20260901073718 -17 0.0 0.0 0.00 0.00 0.00 1020.0
20260901073213 -17 0.0 0.0 0.00 0.00 0.00 1020.0
20260901072706 -17 0.0 0.0 0.00 0.00 0.00 1019.9
20260901072202 -17 0.0 0.0 0.00 0.00 0.00 1019.9
20260901071717 -17 0.0 0.0 0.00 0.00 0.00 1019.9
20260901071212 -17 0.0 0.0 0.00 0.00 0.00 1019.8
20260901070709 -17 0.0 0.0 0.00 0.00 0.00 1019.8
20260901070219 -17 0.0 0.0 0.00 0.00 0.00 1019.8
20260901065714 -17 0.0 0.0 0.00 0.00 0.00 1019.8
20260901065209 -17 0.0 0.0 0.00 0.00 0.00 1019.8
20260901064705 -17 0.0 0.0 0.00 0.00 0.00 1019.8
20260901064219 -17 0.0 0.0 0.00 0.00 0.00 1019.8
20260901063714 -17 0.0 0.0 0.00 0.00 0.00 1019.8
20260901063209 -17 0.0 0.0 0.00 0.00 0.00 1019.8
20260901062705 -17 0.0 0.0 0.00 0.00 0.00 1019.8
20260901062219 -17 0.0 0.0 0.00 0.00 0.00 1019.8
20260901061708 -17 0.0 0.0 0.00 0.00 0.00 1019.8
20260901061218 -17 0.0 0.0 0.00 0.00 0.00 1020.4
20260901060712 -17 0.0 0.0 0.00 0.00 0.00 1020.4
20260901060207 -17 0.0 0.0 0.00 0.00 0.00 1020.4
20260901055702 -17 0.0 0.0 0.00 0.00 0.00 1020.4
20260901055215 -17 0.0 0.0 0.00 0.00 0.00 1020.4
20260901054710 -17 0.0 0.0 0.00 0.00 0.00 1020.4
20260901054204 -17 0.0 0.0 0.00 0.00 0.00 1020.2
20260901053719 -17 0.0 0.0 0.00 0.00 0.00 1020.2
20260901053214 -17 0.0 0.0 0.00 0.00 0.00 1020.2
20260901052709 -17 0.0 0.0 0.00 0.00 0.00 1020.3
20260901052220 -17 0.0 0.0 0.00 0.00 0.00 1020.3
20260901051715 -17 0.0 0.0 0.00 0.00 0.00 1020.3
20260901051210 -17 0.0 0.0 0.00 0.00 0.00 1020.1
20260901050704 -17 0.0 0.0 0.00 0.00 0.00 1020.1
20260901050218 -17 0.0 0.0 0.00 0.00 0.00 1020.1
20260901045712 -17 0.0 0.0 0.00 0.00 0.00 1020.0
20260901045206 -17 0.0 0.0 0.00 0.00 0.00 1020.0
20260901044701 -17 0.0 0.0 0.00 0.00 0.00 1020.0
20260901044216 -17 0.0 0.0 0.00 0.00 0.00 1019.9
20260901043711 -17 0.0 0.0 0.00 0.00 0.00 1019.9
20260901043201 -17 0.0 0.0 0.00 0.00 0.00 1019.9
20260901042716 -17 0.0 0.0 0.00 0.00 0.00 1019.9
20260901042210 -17 0.0 0.0 0.00 0.00 0.00 1019.9
20260901041704 -17 0.0 0.0 0.00 0.00 0.00 1019.9
20260901041218 -17 0.0 0.0 0.00 0.00 0.00 1019.5
20260901040712 -17 0.0 0.0 0.00 0.00 0.00 1019.5
20260901040208 -17 0.0 0.0 0.00 0.00 0.00 1019.5
20260901035703 -17 0.0 0.0 0.00 0.00 0.00 1019.5
20260901035219 -17 0.0 0.0 0.00 0.00 0.00 1019.5
20260901034712 -17 0.0 0.0 0.00 0.00 0.00 1019.5
20260901034203 -17 0.0 0.0 0.00 0.00 0.00 1019.5
20260901033213 -17 0.0 0.0 0.00 0.00 0.00 1019.5
20260901032707 -17 0.0 0.0 0.00 0.00 0.00 1019.5
20260901032202 -17 0.0 0.0 0.00 0.00 0.00 1019.5
20260901031716 -17 0.0 0.0 0.00 0.00 0.00 1019.5
20260901031209 -17 0.0 0.0 0.00 0.00 0.00 1019.9
20260901030703 -17 0.0 0.0 0.00 0.00 0.00 1019.9
20260901030218 -17 0.0 0.0 0.00 0.00 0.00 1019.9
20260901025712 -17 0.0 0.0 0.00 0.00 0.00 1020.0
20260901025203 -17 0.0 0.0 0.00 0.00 0.00 1020.0
20260901024718 -17 0.0 0.0 0.00 0.00 0.00 1020.0
20260901024214 -17 0.0 0.0 0.00 0.00 0.00 1020.0
20260901023708 -17 0.0 0.0 0.00 0.00 0.00 1020.0
20260901023204 -17 0.0 0.0 0.00 0.00 0.00 1020.0
20260901022719 -17 0.0 0.0 0.00 0.00 0.00 1020.0
20260901022216 -17 0.0 0.0 0.00 0.00 0.00 1020.0
20260901021710 -17 0.0 0.0 0.00 0.00 0.00 1020.0
20260901021205 -17 0.0 0.0 0.00 0.00 0.00 1019.7
20260901020720 -17 0.0 0.0 0.00 0.00 0.00 1019.7
20260901020212 -17 0.0 0.0 0.00 0.00 0.00 1019.7
20260901015708 -17 0.0 0.0 0.00 0.00 0.00 1019.7
20260901015203 -17 0.0 0.0 0.00 0.00 0.00 1019.7
20260901014718 -17 0.0 0.0 0.00 0.00 0.00 1019.7
20260901014214 -17 0.0 0.0 0.00 0.00 0.00 1019.6
20260901013709 -17 0.0 0.0 0.00 0.00 0.00 1019.6
20260901013204 -17 0.0 0.0 0.00 0.00 0.00 1019.6
20260901012719 -17 0.0 0.0 0.00 0.00 0.00 1019.4
20260901012215 -17 0.0 0.0 0.00 0.00 0.00 1019.4
20260901011710 -17 0.0 0.0 0.00 0.00 0.00 1019.4
20260901011206 -17 0.0 0.0 0.00 0.00 0.00 1019.6
20260901010717 -17 0.0 0.0 0.00 0.00 0.00 1019.6
20260901010211 -17 0.0 0.0 0.00 0.00 0.00 1019.6
20260901005706 -17 0.0 0.0 0.00 0.00 0.00 1019.6
20260901005201 -17 0.0 0.0 0.00 0.00 0.00 1019.6
20260901004715 -17 0.0 0.0 0.00 0.00 0.00 1019.6
20260901004211 -17 0.0 0.0 0.00 0.00 0.00 1019.6
20260901003706 -17 0.0 0.0 0.00 0.00 0.00 1019.6
20260901003220 -17 0.0 0.0 0.00 0.00 0.00 1019.6
20260901002713 -17 0.0 0.0 0.00 0.00 0.00 1019.6
20260901002209 -17 0.0 0.0 0.00 0.00 0.00 1019.6
20260901001721 -17 0.0 0.0 0.00 0.00 0.00 1019.6
20260901001214 -17 0.0 0.0 0.00 0.00 0.00 1019.5
20260901000710 -17 0.0 0.0 0.00 0.00 0.00 1019.5
20260901000206 -17 0.0 0.0 0.00 0.00 0.00 1019.5
20260831235701 -17 0.0 0.0 0.00 0.00 0.00 1019.4
20260831235215 -17 0.0 0.0 0.00 0.00 0.00 1019.4
20260831234710 -17 0.0 0.0 0.00 0.00 0.00 1019.4
20260831234205 -17 0.0 0.0 0.00 0.00 0.00 1019.4
20260831233719 -17 0.0 0.0 0.00 0.00 0.00 1019.4
20260831233212 -17 0.0 0.0 0.00 0.00 0.00 1019.4
20260831232702 -17 0.0 0.0 0.00 0.00 0.00 1019.5
20260831232216 -17 0.0 0.0 0.00 0.00 0.00 1019.5
20260831231711 -17 0.0 0.0 0.00 0.00 0.00 1019.5
20260831231207 -17 0.0 0.0 0.00 0.00 0.00 1019.6
20260831230703 -17 0.0 0.0 0.00 0.00 0.00 1019.6
20260831230217 -17 0.0 0.0 0.00 0.00 0.00 1019.6
20260831225712 -17 0.0 0.0 0.00 0.00 0.00 1019.6
20260831225206 -17 0.0 0.0 0.00 0.00 0.00 1019.6
20260831224703 -17 0.0 0.0 0.00 0.00 0.00 1019.6
20260831224218 -17 0.0 0.0 0.00 0.00 0.00 1019.6
20260831223709 -17 0.0 0.0 0.00 0.00 0.00 1019.6
20260831223203 -17 0.0 0.0 0.00 0.00 0.00 1019.6
20260831222718 -17 0.0 0.0 0.00 0.00 0.00 1019.6
20260831222214 -17 0.0 0.0 0.00 0.00 0.00 1019.6
20260831221710 -17 0.0 0.0 0.00 0.00 0.00 1019.6
20260831221204 -17 0.0 0.0 0.00 0.00 0.00 1019.8
20260831220719 -17 0.0 0.0 0.00 0.00 0.00 1019.8
20260831220213 -17 0.0 0.0 0.00 0.00 0.33 1019.8
20260831215707 -17 0.0 0.0 0.00 0.00 0.33 1019.8
20260831215203 -17 0.0 0.0 0.00 0.00 0.33 1019.8
20260831214714 -17 0.0 0.0 0.00 0.00 0.33 1019.8
20260831214209 -17 0.0 0.0 0.00 0.00 0.33 1019.7
20260831213702 -17 0.0 0.0 0.00 0.00 0.33 1019.7
20260831213219 -17 0.0 0.0 0.00 0.00 0.33 1019.7
20260831212715 -17 0.0 0.0 0.00 0.00 0.33 1019.7
20260831212211 -17 0.0 0.0 0.00 0.00 0.33 1019.7
20260831211707 -17 0.0 0.0 0.00 0.00 0.33 1019.7
20260831211222 -17 0.0 0.0 0.00 0.00 0.33 1019.1
20260831210716 -17 0.0 0.0 0.00 0.00 0.33 1019.1
20260831210210 -17 0.0 0.0 0.00 0.00 0.33 1019.1
20260831205705 -17 0.0 0.0 0.00 0.00 0.33 1019.1
20260831205216 -17 0.0 0.0 0.00 0.00 0.33 1019.1
20260831204719 -17 0.0 0.0 0.00 0.00 0.33 1019.1
20260831204214 18 0.0 0.0 0.00 0.00 0.33 56 1019.0
20260831203709 18 360 9.7 0.0 0.00 0.00 0.33 56 1019.0
20260831203220 18 259 8.0 0.0 0.00 0.00 0.33 56 1019.0
20260831202718 18 275 4.8 0.0 0.00 0.00 0.33 55 1018.8